Cloud_Cover
100 100 100 100 100 100 88 13 17 23 20 22 20 51 27 21 0 0 0 0 2 2 5 100 68 100 100 100 100 100 100 16 10 96 5 5 3 5 2 0 0 0 0 0 0
100 100 100 100 100 100 100 20 64 29 16 24 24 32 36 9 0 0 0 0 0 5 2 81 63 100 100 98 100 100 100 90 92 88 5 5 14 38 8 0 0 0 0 0 0
99 100 100 100 100 100 100 22 25 36 26 24 29 30 26 0 0 0 0 0 0 4 0 0 5 68 92 100 100 100 100 100 100 100 40 30 90 42 9 5 5 1 0 0 0
100 100 100 100 100 71 5 24 25 28 23 28 29 29 0 0 0 0 0 0 0 0 0 2 5 5 7 92 98 70 100 100 100 99 47 13 90 13 5 5 5 34 8 2 5
100 100 100 100 89 71 64 59 80 67 27 21 9 8 0 0 0 0 0 0 0 0 0 0 0 4 5 22 100 85 100 100 84 78 98 19 5 73 100 53 5 100 93 5 2
100 100 100 100 100 100 100 100 92 36 14 0 0 0 0 0 0 0 0 0 0 0 0 0 0 0 2 30 100 88 100 100 98 100 60 45 74 97 87 100 87 10 53 65 5
100 100 100 100 100 100 100 100 76 22 0 0 0 0 0 0 0 0 0 0 0 0 0 0 0 0 56 66 95 100 91 100 100 94 13 55 7 5 25 77 100 100 45 16 99
100 100 100 100 100 100 100 100 61 0 0 0 0 0 0 0 0 0 0 0 0 0 0 0 0 0 8 20 100 100 100 100 100 100 90 12 69 20 4 5 94 100 96 51 5
100 100 100 100 100 100 100 78 1 0 0 0 0 0 0 0 0 0 0 0 0 0 0 0 0 0 0 17 47 100 98 100 100 100 75 96 100 76 5 6 10 93 51 52 25
100 100 100 100 100 100 87 0 0 0 0 0 0 0 0 0 0 0 0 0 0 0 0 0 0 0 0 0 73 100 65 60 25 100 99 100 100 100 6 6 0 3 5 6 9
100 100 100 100 100 100 41 0 0 0 0 0 0 0 0 0 0 0 0 0 0 0 0 0 0 0 0 9 5 19 88 100 100 100 100 96 100 8 13 26 6 0 0 14 5
100 100 100 100 100 85 5 1 0 0 0 0 0 0 0 0 0 0 0 0 0 0 0 0 0 0 0 0 3 0 5 36 5 85 27 99 100 98 97 90 13 0 0 1 64
100 100 100 100 13 0 0 0 0 0 0 0 0 0 0 0 0 0 0 0 0 0 0 0 0 0 0 0 14 24 5 5 20 19 100 68 100 100 100 100 100 4 83 71 100
100 100 100 95 0 2 5 4 4 1 0 0 0 0 0 0 0 0 0 0 0 0 0 0 0 0 0 0 4 55 5 35 5 4 18 49 100 100 83 100 100 68 97 100 100
100 100 100 93 16 0 0 0 0 1 0 0 0 0 0 0 0 0 0 0 0 0 0 0 0 0 0 0 39 3 5 5 1 3 5 6 78 100 100 100 100 100 100 97 97
100 100 99 1 4 0 0 0 0 0 0 0 0 4 0 0 0 0 0 0 0 0 0 0 0 0 0 0 0 1 42 17 2 5 3 50 24 6 96 100 94 100 100 100 100
100 100 100 16 0 0 0 0 0 0 0 0 0 0 5 0 0 0 0 0 0 0 0 0 0 0 0 0 0 0 2 4 0 2 1 20 41 100 91 100 100 100 100 100 87
100 96 6 6 0 0 0 0 0 0 0 0 0 0 2 0 0 0 0 0 0 0 0 0 0 0 0 0 0 0 0 0 0 0 0 5 83 42 92 75 100 39 95 97 98
23 0 0 0 0 0 0 0 0 0 5 0 0 0 0 1 5 3 0 0 3 0 0 0 0 0 0 0 0 0 0 0 0 0 0 0 3 5 5 90 63 99 100 100 100
1 0 5 5 0 0 0 0 0 4 5 5 5 5 3 5 2 5 1 0 0 4 4 0 0 0 0 0 0 0 0 0 0 0 0 0 20 58 48 59 93 69 100 96 100
0 5 5 5 3 0 0 4 5 5 5 5 5 5 5 5 5 5 16 0 5 5 5 2 0 0 0 0 0 0 0 0 0 0 1 0 24 99 100 100 88 100 100 97 100
5 0 0 5 5 5 5 5 5 5 5 5 5 5 5 5 5 5 5 2 0 1 4 5 0 0 0 0 0 0 2 0 0 0 0 4 60 98 100 68 100 100 100 100 100
4 0 2 0 2 5 5 5 5 5 5 5 30 5 4 0 1 0 5 5 5 0 0 0 0 0 0 0 0 0 0 5 4 0 0 0 10 78 100 100 98 100 99 98 100
1 0 0 5 2 0 2 4 3 0 0 5 4 2 0 0 0 0 0 1 5 5 4 0 0 0 0 1 0 4 5 56 22 5 0 0 96 100 100 96 100 94 39 18 36
3 0 0 5 5 5 1 2 2 2 2 0 3 5 5 0 0 0 1 0 0 0 4 5 4 5 5 9 74 58 5 36 34 4 4 0 14 100 100 33 33 35 71 100 89
5 19 5 4 0 5 5 5 5 5 5 0 5 0 3 5 0 0 0 0 0 0 0 5 5 99 99 97 48 77 24 5 92 99 82 0 85 100 12 0 0 2 70 100 100
43 51 74 16 5 0 2 2 5 5 3 4 0 1 2 5 5 4 10 16 2 5 5 5 5 100 100 100 100 99 80 82 9 100 9 94 44 66 17 24 27 39 100 94 100